FENGYUN 1C DEB

Satellite information

Favourite Embed

Satellite Type and Status

DEBRISIN ORBIT

Key statistics

Satellite FENGYUN 1C DEB at a glance.

Uptime

9715

Days in orbit

Revolutions

≈ 14.2

Per day

Orbit

SSO

Sun Synchronous Orbit

Inclination

98.7

Latest

Satellite identification and parameters

Extended collection of information and parameters for FENGYUN 1C DEB.

Object identification

Identified? True

Debris? True

Object name: FENGYUN 1C DEB

International designator: 1999-025EYA

Object number (NORAD): 41823

Object ID (CCSDS): 41823

Country: PEOPLES REPUBLIC OF CHINA (PRC)

Current information (Y/N): Y

RCS size: SMALL

Orbital parameters

Period: 101.157 minutes

Inclination: 98.7212 deg

SMA: 7191.582 km

Apoapsis: 852.787 km

Periapsis: 774.108 km

RAAN: 50.9768 deg

Eccentricy: 0.00547019

Argument of periapsis: 225.5553 deg

Mean anomaly: 134.1144 deg

Mean motion: 14.23528253 rev/day

Mean motion (dot): 0.0000434 rev/day2

B* drag term: 0.0018968928 1/REarth

Two-line elements (TLE)

Creation date: Dec. 14, 2025, 3:07 a.m.

Reference frame: TEME

Reference center: EARTH

Epoch: Dec. 13, 2025, 3:49 p.m. UTC

TLE line 0: 0 FENGYUN 1C DEB

TLE line 1: 1 41823U 99025EYA 25347.65919794 .00004340 00000-0 18969-2 0 9990

TLE line 2: 2 41823 98.7212 50.9768 0054702 225.5553 134.1144 14.23528253473714

Live tracking on map

Real-time ground track for satellite FENGYUN 1C DEB.

In-orbit conjunctions

A list of the most updated potential collisions computed for object FENGYUN 1C DEB.

Target Orbit TCA Probability of collision Miss distance Type
CZ-6A DEB LEO 2025-02-23 05:53:25 0.0001740792 463.0 (m) DEBRIS
CZ-6A DEB LEO 2025-02-17 14:41:14 0.0001296901 854.0 (m) DEBRIS
COSMOS 724 LEO 2025-01-28 00:57:33 0.0002927895 190.0 (m) PAYLOAD
METEOR 2-5 LEO 2025-01-17 16:41:01 0.001006125 248.0 (m) PAYLOAD
CZ-6A DEB LEO 2024-11-19 10:51:41 0.0002864563 597.0 (m) DEBRIS

Associated space launch

Chinese polar orbiting meteorological satellite

FENGYUN 1C DEB was lifted into orbit during the mission ‘Long March 4B | Feng Yun 1C’, on board a Long March 4B space rocket.

The launch took place on May 10, 1999, 1:33 a.m. from Launch Complex 7.

For more information about the launch, click the button.

Launch to space Long March 4B | Feng Yun 1C
Long March 4B | Feng Yun 1C

Agency: N/A

Status: Launch Successful

Launch date: May 10, 1999, 1:33 a.m. UTC

Rocket: Long March 4B

Launch pad: Launch Complex 7

Location: Taiyuan Satellite Launch Center, People's Republic of China

...

Latest news about this satellite

There are no fresh news available about this satellite. Check back as we update our databases every day.


Newsletter sign-up

Weekly statistics, charts and insights to help you stay on top of the space industry.